www.pogodaiklimat.ru

Погода и климат >> Архив погоды >> Венгрия >> Сентготтхард


ПОГОДА в Сентготтхарде

  • Прогноз погоды в Сентготтхарде
  • Монитор погоды в Сентготтхарде

АРХИВ ПОГОДЫ в Сентготтхарде

Время (UTC), дата Ветер
(напр.,м/с)
 
Видим.   Явления Облачность Т
(С)
Тd
(С)
f
(%)
Тe
(С)
Тes
(С)
Комфортность P
(гПа)
Po
(гПа)
Тmin
(С)
Tmax
(С)
R
(мм)
R24
(мм)
S
(см)
13 18.08 Ю 2 н/о н/о +28.8 +18.0 52 +33 +33 очень
душно
1013.1 977.9
14 18.08 Ю 2 н/о н/о +28.7 +18.2 53 +33 +33 очень
душно
1013.1 977.9
15 18.08 Ю 3 н/о н/о +27.8 +18.5 57 +33 +33 очень
душно
1013.1 977.8
16 18.08 Ю 2 н/о н/о +26.6 +18.5 61 +31 +31 душно 1013.1 977.6
17 18.08 Ю 2 н/о н/о +25.3 +18.5 66 +30 +30 душно 1013.1 977.5
18 18.08 ЮВ 1 н/о н/о +23.1 +18.4 75 +29 +29 очень
душно
1013.1 977.2 +29.2
19 18.08 ЮВ 1 н/о н/о +21.4 +18.4 83 +26 +26 душно 1013.5 977.4
20 18.08 Ю 1 н/о н/о +20.9 +18.3 85 +26 +26 душно 1013.6 977.4
21 18.08 Ю 1 н/о н/о +19.8 +17.9 89 +24 +24 комфорт 1013.6 977.3
22 18.08 ЮВ 1 н/о н/о +18.9 +17.6 92 +21 +21 комфорт 1014.1 977.7
23 18.08 Ю 1 н/о н/о +18.4 +17.1 92 +20 +20 1013.9 977.4
00 19.08 Ю 1 н/о н/о +18.0 +16.5 91 +19 +19 1013.8 977.3
01 19.08 ЮВ 1 н/о н/о +17.4 +16.3 93 +18 +18 1013.8 977.2
02 19.08 Ю 1 н/о н/о +16.6 +15.8 95 +17 +17 1013.9 977.2
03 19.08 штиль 0 н/о н/о +15.8 +15.3 97 +16 +16 1014.0 977.2
04 19.08 ЮЗ 1 н/о н/о +15.7 +14.9 95 +16 +16 1014.4 977.6
05 19.08 Ю 1 н/о н/о +16.6 +15.5 93 +17 +17 1014.8 978.1
06 19.08 ЮЗ 1 н/о н/о +21.0 +16.8 77 +26 +26 душно 1015.0 978.8 +15.7
07 19.08 Ю 1 н/о н/о +23.8 +17.3 67 +28 +28 душно 1015.0 979.1
08 19.08 ЮВ 1 н/о н/о +25.1 +18.1 65 +29 +29 душно 1015.5 979.8
09 19.08 В 2 н/о н/о +26.8 +17.8 58 +31 +31 душно 1015.5 980.0
10 19.08 В 3
{8}
н/о н/о +27.2 +17.4 55 +31 +31 душно 1016.2 980.7
11 19.08 В 2
{7}
н/о н/о +28.1 +17.9 54 +33 +33 очень
душно
1016.2 980.8
12 19.08 В 3 н/о н/о +29.0 +16.9 48 +33 +33 очень
душно
1015.9 980.6
13 19.08 В 3
{7}
н/о н/о +29.0 +16.6 47 +32 +32 душно 1016.2 980.9
14 19.08 В 2 н/о н/о +28.9 +15.4 44 +32 +32 душно 1015.9 980.6
15 19.08 В 1 н/о н/о +28.3 +15.9 47 +31 +31 душно 1015.9 980.5
16 19.08 ЮВ 1 н/о н/о +27.3 +16.6 52 +31 +31 душно 1015.6 980.1
17 19.08 штиль 0 н/о н/о +25.6 +17.8 62 +30 +30 душно 1015.9 980.2
18 19.08 штиль 0 н/о н/о +23.2 +18.3 74 +29 +29 душно 1016.5 980.5 +29.4
19 19.08 штиль 0 н/о н/о +22.1 +17.7 76 +27 +27 душно 1017.4 981.2
20 19.08 З 1 н/о н/о +22.0 +18.0 78 +27 +27 душно 1018.0 981.8
21 19.08 СЗ 3
{7}
н/о н/о +22.3 +18.1 77 +27 +27 душно 1018.6 982.4
22 19.08 СЗ 2
{7}
н/о н/о +20.2 +18.9 92 +24 +24 комфорт 1018.5 982.1
23 19.08 С 2 н/о н/о +20.0 +18.7 92 +24 +24 комфорт 1018.7 982.2
00 20.08 З 1 н/о н/о +19.3 +18.5 95 +23 +23 комфорт 1018.5 982.0
01 20.08 З 1 н/о н/о +19.0 +18.5 97 +22 +22 комфорт 1018.8 982.2
02 20.08 З 1 н/о н/о +18.7 +18.4 98 +21 +21 комфорт 1019.0 982.4
03 20.08 СЗ 1 н/о н/о +18.4 +18.1 98 +20 +20 1019.1 982.4
04 20.08 СЗ 2 н/о н/о +18.2 +18.0 99 +19 +19 1019.3 982.6
05 20.08 СЗ 2 н/о н/о +18.4 +18.1 98 +20 +20 1019.6 982.9
06 20.08 СЗ 1 н/о н/о +20.3 +18.4 89 +25 +25 комфорт 1019.7 983.2 +18.0
07 20.08 В 1 н/о н/о +23.0 +17.7 72 +28 +28 душно 1019.4 983.3
08 20.08 С 2 н/о н/о +24.1 +17.6 67 +28 +28 душно 1019.6 983.6
09 20.08 С 1 н/о н/о +25.8 +19.2 67 +31 +31 очень
душно
1019.5 983.7
10 20.08 ЮВ 1 н/о н/о +27.3 +18.9 60 +32 +32 очень
душно
1019.2 983.6
11 20.08 ЮВ 1 н/о н/о +27.9 +18.6 57 +33 +33 очень
душно
1018.7 983.2
12 20.08 Ю 2 н/о н/о +29.5 +19.5 55 +35 +35 очень
душно
1018.3 983.0
13 20.08 Ю 2 н/о н/о +30.0 +19.1 52 +35 +35 очень
душно
1017.6 982.4
14 20.08 Ю 1 н/о н/о +29.8 +17.9 49 +34 +34 очень
душно
1017.6 982.3
15 20.08 Ю 2 н/о н/о +29.1 +18.8 54 +34 +34 очень
душно
1017.4 982.1
16 20.08 Ю 1 н/о н/о +27.7 +17.8 55 +32 +32 очень
душно
1017.3 981.8
17 20.08 Ю 1 н/о н/о +26.6 +18.7 62 +32 +32 очень
душно
1017.2 981.6
18 20.08 штиль 0 н/о н/о +23.7 +19.8 79 +29 +29 душно 1017.5 981.5 +30.2
19 20.08 Ю 1 н/о н/о +22.5 +19.3 82 +28 +28 душно 1017.8 981.7
20 20.08 ЮЗ 1 н/о н/о +22.1 +18.9 82 +27 +27 душно 1017.9 981.7
21 20.08 ЮЗ 1 н/о н/о +21.5 +18.3 82 +26 +26 душно 1017.8 981.6
22 20.08 ЮЗ 1 н/о н/о +21.5 +18.5 83 +26 +26 душно 1017.7 981.5
23 20.08 штиль 0 н/о н/о +20.5 +18.6 89 +24 +24 комфорт 1017.7 981.3
00 21.08 С 1 н/о н/о +20.6 +18.9 90 +26 +26 душно 1017.7 981.3
01 21.08 С 1 н/о н/о +20.7 +19.0 90 +26 +26 душно 1018.2 981.8
02 21.08 В 1 н/о н/о +20.6 +18.7 89 +26 +26 душно 1018.7 982.3
03 21.08 В 2
{7}
н/о н/о +20.4 +17.8 85 +24 +24 комфорт 1019.2 982.8
04 21.08 В 1 н/о н/о +19.6 +17.0 85 +23 +23 комфорт 1020.6 984.0
05 21.08 СВ 2 н/о н/о +19.6 +15.3 76 +22 +22 комфорт 1021.6 985.0
06 21.08 СВ 2 н/о н/о +19.5 +13.9 70 +22 +22 комфорт 1022.6 985.9 +19.5
07 21.08 СВ 2
{7}
н/о н/о +20.7 +13.9 65 +24 +24 комфорт 1023.2 986.7
08 21.08
{7}
н/о н/о +21.2 +13.9 63 1023.7 987.2
09 21.08 С 2
{7}
н/о н/о +20.6 +13.1 62 +24 +24 комфорт 1024.2 987.6
10 21.08 СВ 2 н/о н/о +20.1 +13.1 64 +23 +23 комфорт 1024.8 988.1
11 21.08 СВ 2 н/о н/о +19.1 +15.4 79 +21 +21 комфорт 1025.0 988.2
12 21.08 СВ 2 н/о н/о +18.9 +13.7 72 +20 +20 1025.2 988.4 0.7
13 21.08 СВ 2
{7}
н/о н/о +20.0 +14.4 70 +23 +23 комфорт 1024.8 988.1
14 21.08 СВ 2
{9}
н/о н/о +21.0 +12.9 60 +24 +24 комфорт 1024.7 988.1
15 21.08 СВ 3
{7}
н/о н/о +20.4 +12.9 62 +23 +23 комфорт 1024.9 988.3
16 21.08 СВ 2
{8}
н/о н/о +19.3 +12.6 65 +21 +21 комфорт 1025.3 988.5
17 21.08 СВ 1
{7}
н/о н/о +18.6 +12.4 67 +20 +20 1025.3 988.4
18 21.08 СВ 1 н/о н/о +18.1 +12.3 69 +19 +19 1025.4 988.5 +21.2 0.7
19 21.08 С 2 н/о н/о +17.6 +12.3 71 +18 +18 1025.9 988.9
20 21.08 С 1 н/о н/о +16.0 +12.4 79 +17 +17 1026.2 989.0
21 21.08 С 1 н/о н/о +16.1 +11.9 76 +17 +17 1026.4 989.2
22 21.08 С 2 н/о н/о +15.9 +11.7 76 +16 +16 1026.6 989.3
23 21.08 С 2 н/о н/о +15.7 +11.5 76 +16 +16 1026.3 989.0
00 22.08 С 2 н/о н/о +15.7 +11.7 77 +16 +16 1026.0 988.7
01 22.08 С 1 н/о н/о +15.4 +12.0 80 +16 +16 1025.9 988.6
02 22.08 С 1 н/о н/о +15.5 +11.9 79 +16 +16 1025.6 988.3
03 22.08 СЗ 2 н/о н/о +15.7 +11.9 78 +16 +16 1025.1 987.9
04 22.08 С 1 н/о н/о +16.0 +11.8 76 +17 +17 1025.2 988.0
05 22.08 штиль 0 н/о н/о +15.7 +12.8 83 +15 +15 1025.8 988.5
06 22.08 В 1 н/о н/о +16.0 +13.1 83 +17 +17 1025.4 988.2 +15.0
07 22.08 В 2 н/о н/о +17.2 +12.9 76 +18 +18 1025.0 988.0
08 22.08 С 1 н/о н/о +18.3 +13.0 71 +20 +20 1025.6 988.7
09 22.08 С 2 н/о н/о +20.2 +13.7 66 +23 +23 комфорт 1025.4 988.7
10 22.08 В 1 н/о н/о +20.9 +13.6 63 +25 +25 комфорт 1025.1 988.5
11 22.08 штиль 0 н/о н/о +21.7 +14.4 63 +25 +25 комфорт 1024.6 988.1
12 22.08 н/о н/о +21.8 +14.0 61 1024.2 987.8
13 22.08 н/о н/о +22.4 +14.5 61 1024.0 987.6
14 22.08 штиль 0 н/о н/о +22.2 +14.8 63 +26 +26 душно 1023.7 987.3
15 22.08 В 1 н/о н/о +19.3 +18.1 93 +22 +22 комфорт 1024.0 987.3
16 22.08 СВ 1 н/о н/о +18.2 +17.2 94 +20 +20 1023.8 986.9
17 22.08 штиль 0 н/о н/о +18.8 +18.3 97 +20 +20 1023.7 986.9
18 22.08 штиль 0 н/о н/о +17.5 +17.2 98 +17 +17 1024.3 987.3 +22.5 3
19 22.08 С 1 н/о н/о +17.2 +17.0 99 +18 +18 1025.0 988.0
20 22.08 С 1 н/о н/о +16.7 +16.4 98 +18 +18 1025.3 988.2
21 22.08 С 1 н/о н/о +16.4 +16.2 99 +17 +17 1025.5 988.3
22 22.08 СЗ 1 н/о н/о +16.3 +16.1 99 +17 +17 1025.4 988.2
23 22.08 СЗ 1 н/о н/о +16.5 +16.2 98 +17 +17 1025.3 988.2
00 23.08 СЗ 2 н/о н/о +16.8 +16.3 97 +17 +17 1025.2 988.1
01 23.08 З 1 н/о н/о +16.6 +16.3 98 +17 +17 1025.3 988.2
02 23.08 СЗ 1 н/о н/о +16.9 +16.6 98 +18 +18 1025.1 988.0
03 23.08 С 2 н/о н/о +17.1 +16.5 96 +17 +17 1024.7 987.7
04 23.08 н/о н/о +17.1 +16.5 96 1025.0 988.0
05 23.08 С 1 н/о н/о +17.5 +16.7 95 +19 +19 1025.3 988.3
06 23.08 С 1 н/о н/о +18.5 +16.5 88 +20 +20 1025.4 988.5 +16.2
07 23.08 н/о н/о +19.4 +16.6 84 1025.6 988.8
08 23.08 СВ 1 н/о н/о +20.5 +16.9 80 +25 +25 комфорт 1025.9 989.2
09 23.08 СВ 2 н/о н/о +22.0 +17.2 74 +26 +26 душно 1025.5 989.0
10 23.08 В 2 н/о н/о +22.7 +17.0 70 +27 +27 душно 1025.3 988.9
11 23.08 СВ 2 н/о н/о +23.5 +17.5 69 +27 +27 душно 1024.8 988.5
12 23.08 В 2 н/о н/о +24.3 +17.8 67 +28 +28 душно 1024.2 988.1
13 23.08 СВ 1 н/о н/о +24.9 +17.6 64 +29 +29 душно 1023.9 987.8
14 23.08 В 1 н/о н/о +25.2 +18.2 65 +30 +30 душно 1023.6 987.6
15 23.08 СВ 1 н/о н/о +24.9 +17.6 64 +29 +29 душно 1023.0 987.0
16 23.08 В 1 н/о н/о +24.7 +17.9 66 +29 +29 душно 1022.5 986.5
17 23.08 штиль 0 н/о н/о +23.9 +18.8 73 +29 +29 душно 1022.4 986.3
18 23.08 СЗ 1 н/о н/о +21.4 +18.2 82 +26 +26 душно 1022.9 986.5 +25.3
19 23.08 С 1 н/о н/о +20.9 +18.1 84 +26 +26 душно 1023.4 986.9
20 23.08 СЗ 1 н/о н/о +20.7 +18.3 86 +26 +26 душно 1023.5 987.0
21 23.08 СЗ 1 н/о н/о +19.7 +18.4 92 +23 +23 комфорт 1023.4 986.7
22 23.08 СЗ 2 н/о н/о +19.2 +18.0 93 +22 +22 комфорт 1023.1 986.4
23 23.08 СЗ 2 н/о н/о +18.9 +17.9 94 +21 +21 комфорт 1023.2 986.4
00 24.08 СЗ 2 н/о н/о +18.6 +17.6 94 +20 +20 1022.9 986.1
01 24.08 СЗ 2 н/о н/о +18.5 +17.5 94 +20 +20 1022.9 986.1
02 24.08 СЗ 1 н/о н/о +17.9 +17.3 96 +19 +19 1022.7 985.8
03 24.08 СЗ 2 н/о н/о +17.8 +17.2 96 +18 +18 1022.6 985.7
04 24.08 СЗ 1 н/о н/о +17.6 +17.0 96 +19 +19 1022.6 985.7
05 24.08 СЗ 1 н/о н/о +18.1 +17.3 95 +19 +19 1022.5 985.7
06 24.08 С 1 н/о н/о +19.5 +17.6 89 +23 +23 комфорт 1022.2 985.6 +17.4
07 24.08 В 1 н/о н/о +21.1 +17.9 82 +25 +25 комфорт 1022.2 985.7
08 24.08 СВ 1 н/о н/о +22.5 +18.5 78 +28 +28 душно 1022.2 985.9
09 24.08 н/о н/о +24.3 +18.7 71 1021.9 985.8
10 24.08 С 1 н/о н/о +24.7 +18.4 68 +29 +29 душно 1021.5 985.5
11 24.08 СВ 1 н/о н/о +26.0 +19.2 66 +31 +31 очень
душно
1020.9 985.1
12 24.08 В 2 н/о н/о +27.4 +18.7 59 +32 +32 очень
душно
1020.3 984.7
13 24.08 В 2 н/о н/о +27.7 +19.0 59 +33 +33 очень
душно
1019.9 984.3
14 24.08 СВ 2 н/о н/о +28.1 +19.1 58 +33 +33 очень
душно
1019.2 983.7
15 24.08 В 2 н/о н/о +27.4 +18.1 57 +32 +32 очень
душно
1019.0 983.4
16 24.08 СЗ 1 н/о н/о +24.5 +19.8 75 +30 +30 очень
душно
1019.8 983.8
17 24.08 СЗ 3
{9}
н/о н/о +18.2 +17.7 97 +19 +19 1020.8 984.0
18 24.08 СЗ 2 н/о н/о +18.2 +17.6 96 +19 +19 1020.4 983.7 +28.3 7
19 24.08 СЗ 2 н/о н/о +18.3 +17.8 97 +19 +19 1020.5 983.8
20 24.08 СЗ 2 н/о н/о +18.1 +17.6 97 +19 +19 1020.9 984.1
21 24.08 З 2 н/о н/о +17.7 +17.4 98 +18 +18 1021.8 984.9
22 24.08 З 1
{7}
н/о н/о +17.6 +16.5 93 +19 +19 1021.0 984.2
23 24.08 З 2 н/о н/о +17.3 +16.8 97 +18 +18 1021.2 984.3
00 25.08 С 2 н/о н/о +17.8 +16.8 94 +18 +18 1020.6 983.8
01 25.08 СВ 1 н/о н/о +17.2 +16.6 96 +18 +18 1020.5 983.6
02 25.08 С 1 н/о н/о +16.7 +16.5 99 +18 +18 1020.2 983.3
03 25.08 СЗ 1 н/о н/о +16.3 +16.3 100 +17 +17 1020.7 983.7
04 25.08 СВ 1 н/о н/о +16.4 +16.4 100 +17 +17 1020.9 983.9
05 25.08 н/о н/о +17.1 +16.8 98 1021.0 984.1
06 25.08 СЗ 1 н/о н/о +17.6 +17.3 98 +19 +19 1020.8 984.0 +16.2
07 25.08 С 2 н/о н/о +18.4 +17.8 96 +20 +20 1021.1 984.4
08 25.08 С 1 н/о н/о +18.9 +17.9 94 +21 +21 комфорт 1021.7 985.0
09 25.08 СЗ 1 н/о н/о +19.6 +19.1 97 +23 +23 комфорт 1021.7 985.1
10 25.08 С 1 н/о н/о +20.1 +19.4 96 +25 +25 комфорт 1021.2 984.7
11 25.08 СЗ 2 н/о н/о +21.7 +20.2 91 +27 +27 душно 1021.0 984.7
12 25.08 СЗ 2 н/о н/о +23.2 +20.0 82 +30 +30 очень
душно
1020.5 984.4 0.8

 

Местоположение метеостанции Сентготтхард (Венгрия): широта 46.92 долгота 16.32 высота над уровнем моря 313 м.

В архиве по умолчанию представлена погода в Сентготтхарде за последнюю неделю. Архивные данные за месяц целиком и за предыдущие месяцы, начиная с января 2011 года, Вы можете получить, выбрав интересующий диапазон дат из раскрывающегося списка и нажав кнопку "Ввод!".


*Определитесь, кто Вы:
робот инопланетянин человек

Внимание! Время в таблицах - всемирное. Для получения местного времени необходимо прибавить поправку, которая равна 1 ч.

Смотрите также архив погоды в соседних городах и на ближайших метеорологических станциях:

Погода в Кляйнциккене (Австрия) (31 км)
Погода в Мурска-Соботе (Словения) (32 км)
Погода в Бад-Глайхенбере (Австрия) (32 км)
Погода в Фельбахе (Австрия) (34 км)
Погода в Залаэгерсеге (Венгрия) (37 км)
Погода в Бад-Радкерсбурге (Австрия) (37 км)
Погода в Сомбатхее (Венгрия) (45 км)
Погода в Бад-Тацмансдорфе (Австрия) (46 км)
Погода в Хартберге (Австрия) (48 км)
Погода в Ласницхёэ (Австрия) (59 км)

Пояснения к столбцам:

Ветер - указаны скорость ветра в м/с - средняя за 10 мин, порывы в срок и между сроками (в фигурных скобках) и направление, откуда дует ветер: С - северный, СВ - северо-восточный, В - восточный, ЮВ - юго-восточный, Ю - южный, ЮЗ - юго-западный, З - западный, СЗ - северо-западный.
Видимость - горизонтальная дальность видимости в метрах или километрах. При видимости от 1 до 10 км при отсутствии осадков обычно наблюдается дымка, при ухудшении видимости до 1 км и менее - туман. В сухую погоду видимость может ухудшаться дымом, пылью или мглою.
Явления - указаны атмосферные явления, наблюдавшиеся в срок или в последний час перед сроком; фигурными скобками обозначены явления, наблюдавшиеся между сроками (за 1-3 часа до срока); квадратными скобками обозначены град или гололедные отложения с указанием их диаметра в мм.
Облачность - указаны через наклонную черту общая и нижняя облачность в баллах и высота нижней границы облаков в метрах; квадратными скобками обозначены формы облаков: Ci - перистые, Cs - перисто-слоистые, Cc - перисто-кучевые, Ac - высококучевые, As - высокослоистые, Sc - слоисто-кучевые, Ns - слоисто-дождевые, Cu - кучевые, Cb - кучево-дождевые. Подробнее классификацию облаков см. в Атласе облаков (PDF).
T - Температура воздуха - температура, измеренная на высоте 2 м над землей.
Td - Температура точки росы - температура, при понижении до которой содержащийся в воздухе водяной пар достигнет насыщения.
f - Относительная влажность воздуха - влажноcть воздуха, измеренная на высоте 2 м над землей.
Te - Эффективная температура - температура, которую ощущает одетый по сезону человек в тени. Характеристика душности погоды. При расчете учитывается влияние влажности воздуха и скорости ветра на теплоощущения человека.
Tes - Эффективная температура на солнце - температура, которую ощущает человек, с поправкой на солнечный нагрев. Характеристика знойности погоды. Зависит от высоты солнца над горизонтом, облачности и скорости ветра. Ночью, в пасмурную погоду, а также при ветре 12 м/с и более поправка равна нулю.
P - Атмосферное давление - приведенное к уровню моря атмосферное давление.
Po - Атмосферное давление - измеренное на уровне метеостанции атмосферное давление.
Tmin - Минимальная температура - минимум температуры воздуха на высоте 2 м над землей.
Tmax - Максимальная температура - максимум температуры воздуха на высоте 2 м над землей.
R - Количество осадков - Количество выпавших осадков за период времени, мм. При наведении курсора мыши на число - период времени, за который выпало указанное количество осадков.
R24 - Количество осадков - Количество выпавших осадков за 24 часа, мм.
S - Снежный покров - Высота снежного покрова, см. При наведении курсора мыши на число - состояние снежного покрова и степень покрытия местности в баллах.